This is the latest recevied weather packets stored in our database for station/object N0MPM-4. If no packets are shown the sender has not sent any weather packets the latest 1 day(s).
| Time | Temp. | Humidity | Pressure | Rain* | Wind** | Luminosity | Snow |
|---|---|---|---|---|---|---|---|
| 1778011481 | 12.78° C | 43% | 1011.1 hPa | 0 mm | 0.89 m/s, 278° | - | - |
| 1778011181 | 12.78° C | 45% | 1011.2 hPa | 0 mm | 0.89 m/s, 266° | - | - |
| 1778010881 | 12.78° C | 47% | 1011.2 hPa | 0 mm | 0.89 m/s, 240° | - | - |
| 1778010581 | 12.78° C | 46% | 1011.2 hPa | 0 mm | 0.89 m/s, 224° | - | - |
| 1778010281 | 12.78° C | 48% | 1011.3 hPa | 0 mm | 0.45 m/s, 328° | - | - |
| 1778009981 | 12.78° C | 45% | 1011.2 hPa | 0 mm | 0.45 m/s, 212° | - | - |
| 1778009681 | 12.78° C | 46% | 1011.4 hPa | 0 mm | 1.34 m/s, 281° | - | - |
| 1778009381 | 12.78° C | 45% | 1011.4 hPa | 0 mm | 1.34 m/s, 256° | - | - |
| 1778009081 | 12.78° C | 47% | 1011.5 hPa | 0 mm | 0.89 m/s, 262° | - | - |
| 1778008781 | 12.78° C | 44% | 1011.4 hPa | 0 mm | 0.89 m/s, 266° | - | - |
| 1778008481 | 12.78° C | 44% | 1011.5 hPa | 0 mm | 0.89 m/s, 194° | - | - |
| 1778008181 | 12.78° C | 48% | 1011.5 hPa | 0 mm | 0.45 m/s, 188° | - | - |
| 1778007881 | 12.22° C | 46% | 1011.6 hPa | 0 mm | 0.89 m/s, 246° | - | - |
| 1778007581 | 12.22° C | 46% | 1011.6 hPa | 0 mm | 0.89 m/s, 291° | - | - |
| 1778007281 | 12.22° C | 46% | 1011.7 hPa | 0 mm | 0.45 m/s, 297° | - | - |
| 1778006981 | 12.22° C | 48% | 1011.7 hPa | 0 mm | 0.89 m/s, 285° | - | - |
| 1778006681 | 12.22° C | 47% | 1011.7 hPa | 0 mm | 0.89 m/s, 248° | - | - |
| 1778006381 | 12.22° C | 48% | 1011.7 hPa | 0 mm | 0.45 m/s, 285° | - | - |
| 1778006081 | 12.22° C | 49% | 1011.8 hPa | 0 mm | 0.45 m/s, 269° | - | - |
| 1778005781 | 11.67° C | 48% | 1011.9 hPa | 0 mm | 0.89 m/s, 300° | - | - |
| 1778005481 | 12.22° C | 49% | 1011.7 hPa | 0 mm | 1.34 m/s, 304° | - | - |
| 1778005181 | 12.22° C | 48% | 1011.7 hPa | 0 mm | 1.34 m/s, 253° | - | - |
| 1778004881 | 12.22° C | 49% | 1011.8 hPa | 0 mm | 0.45 m/s, 304° | - | - |
| 1778004581 | 12.22° C | 48% | 1011.9 hPa | 0 mm | 0.45 m/s, 259° | - | - |
| 1778004281 | 12.22° C | 46% | 1011.9 hPa | 0 mm | 0.45 m/s, 301° | - | - |
* Rain latest hour (hover to see other rain measurements)
** Current wind speed in m/s (hover to see current wind gust speed)